| time (UTC) | temp F | wind direction | speed MPH | gust MPH | rain 1hr in | rain 24hr in | rain mn in | humidity % | barometer mb |
| 20260507001505 | 49 | 275 | 1.0 | 3.0 | 0.00 | 0.16 | 0.00 | 90 | 1010.2 |
| 20260507001005 | 49 | 285 | 2.0 | 3.0 | 0.00 | 0.16 | 0.00 | 90 | 1010.2 |
| 20260507000505 | 49 | 273 | 2.0 | 7.0 | 0.00 | 0.16 | 0.00 | 90 | 1010.2 |
| 20260507000006 | 49 | 279 | 3.0 | 10.0 | 0.00 | 0.16 | 0.00 | 90 | 1010.2 |
| 20260506234004 | 49 | 275 | 1.0 | 5.0 | 0.00 | 0.16 | 0.00 | 90 | 1009.8 |
| 20260506233505 | 49 | 265 | 2.0 | 5.0 | 0.00 | 0.16 | 0.00 | 90 | 1009.9 |
| 20260506233006 | 49 | 276 | 2.0 | 5.0 | 0.00 | 0.16 | 0.00 | 90 | 1010.2 |
| 20260506231505 | 49 | 273 | 4.0 | 8.0 | 0.00 | 0.16 | 0.00 | 90 | 1009.8 |
| 20260506230504 | 49 | 278 | 2.0 | 5.0 | 0.00 | 0.16 | 0.00 | 90 | 1009.8 |
| 20260506230005 | 49 | 288 | 2.0 | 8.0 | 0.00 | 0.16 | 0.00 | 90 | 1009.8 |
| 20260506224504 | 49 | 278 | 1.0 | 5.0 | 0.08 | 0.16 | 0.00 | 91 | 1009.8 |
| 20260506224005 | 49 | 284 | 1.0 | 3.0 | 0.08 | 0.16 | 0.00 | 91 | 1009.8 |
| 20260506223505 | 49 | 280 | 1.0 | 3.0 | 0.08 | 0.16 | 0.00 | 91 | 1009.6 |
| 20260506223005 | 49 | 287 | 2.0 | 8.0 | 0.08 | 0.16 | 0.00 | 91 | 1009.8 |
| 20260506221505 | 49 | 279 | 4.0 | 7.0 | 0.08 | 0.16 | 0.00 | 90 | 1009.5 |
| 20260506221004 | 49 | 293 | 3.0 | 5.0 | 0.08 | 0.16 | 0.00 | 90 | 1009.5 |
| 20260506220505 | 49 | 280 | 3.0 | 7.0 | 0.08 | 0.16 | 0.00 | 90 | 1009.5 |
| 20260506214505 | 49 | 279 | 3.0 | 10.0 | 0.00 | 0.08 | 0.08 | 90 | 1009.2 |
| 20260506214005 | 49 | 308 | 4.0 | 7.0 | 0.00 | 0.08 | 0.08 | 90 | 1009.5 |
| 20260506213005 | 49 | 288 | 5.0 | 8.0 | 0.00 | 0.08 | 0.08 | 90 | 1009.1 |
| 20260506211506 | 49 | 295 | 2.0 | 3.0 | 0.00 | 0.08 | 0.08 | 90 | 1009.1 |
| 20260506211005 | 49 | 304 | 2.0 | 13.0 | 0.00 | 0.08 | 0.08 | 90 | 1009.1 |
| 20260506210504 | 49 | 292 | 3.0 | 8.0 | 0.00 | 0.08 | 0.08 | 89 | 1009.1 |
| 20260506204504 | 50 | 283 | 2.0 | 5.0 | 0.00 | 0.08 | 0.08 | 90 | 1009.1 |
| 20260506204005 | 50 | 285 | 2.0 | 7.0 | 0.00 | 0.08 | 0.08 | 90 | 1008.9 |
| 20260506203505 | 50 | 317 | 3.0 | 7.0 | 0.00 | 0.08 | 0.08 | 91 | 1008.8 |
| 20260506203005 | 50 | 278 | 3.0 | 10.0 | 0.00 | 0.08 | 0.08 | 91 | 1009.0 |
| 20260506201505 | 50 | 288 | 5.0 | 7.0 | 0.00 | 0.08 | 0.08 | 91 | 1008.8 |
| 20260506201005 | 50 | 340 | 2.0 | 5.0 | 0.00 | 0.08 | 0.08 | 91 | 1009.0 |
| 20260506200504 | 50 | 317 | 3.0 | 7.0 | 0.00 | 0.08 | 0.08 | 91 | 1008.8 |
| 20260506200004 | 50 | 321 | 3.0 | 8.0 | 0.00 | 0.08 | 0.08 | 91 | 1008.8 |
| 20260506194505 | 51 | 304 | 3.0 | 10.0 | 0.00 | 0.08 | 0.08 | 91 | 1008.5 |
| 20260506194005 | 51 | 311 | 4.0 | 10.0 | 0.00 | 0.08 | 0.08 | 90 | 1008.6 |
| 20260506193505 | 51 | 355 | 6.0 | 10.0 | 0.00 | 0.08 | 0.08 | 90 | 1008.8 |
| 20260506193005 | 51 | 329 | 3.0 | 10.0 | 0.00 | 0.08 | 0.08 | 90 | 1008.5 |
| 20260506191005 | 52 | 327 | 2.0 | 3.0 | 0.00 | 0.08 | 0.08 | 89 | 1008.1 |
| 20260506190504 | 52 | 309 | 0.0 | 2.0 | 0.00 | 0.08 | 0.08 | 89 | 1007.9 |
| 20260506190005 | 52 | 286 | 0.0 | 5.0 | 0.00 | 0.08 | 0.08 | 89 | 1007.8 |
| 20260506184505 | 52 | 276 | 3.0 | 5.0 | 0.00 | 0.08 | 0.08 | 89 | 1007.8 |
| 20260506184004 | 52 | 289 | 2.0 | 3.0 | 0.00 | 0.08 | 0.08 | 89 | 1007.5 |
| 20260506183005 | 52 | 289 | 4.0 | 10.0 | 0.00 | 0.08 | 0.08 | 88 | 1007.5 |
| 20260506181505 | 53 | 278 | 4.0 | 8.0 | 0.00 | 0.08 | 0.08 | 88 | 1007.4 |
| 20260506181005 | 53 | 269 | 6.0 | 8.0 | 0.00 | 0.08 | 0.08 | 88 | 1007.1 |
| 20260506180505 | 53 | 315 | 3.0 | 8.0 | 0.00 | 0.08 | 0.08 | 88 | 1007.1 |
| 20260506180006 | 53 | 273 | 6.0 | 8.0 | 0.00 | 0.08 | 0.08 | 89 | 1007.1 |
| 20260506173505 | 53 | 297 | 3.0 | 5.0 | 0.00 | 0.08 | 0.08 | 88 | 1007.1 |
| 20260506173004 | 53 | 281 | 3.0 | 7.0 | 0.00 | 0.08 | 0.08 | 89 | 1007.1 |
| 20260506171505 | 53 | 286 | 3.0 | 5.0 | 0.00 | 0.08 | 0.08 | 89 | 1006.8 |
| 20260506171004 | 53 | 291 | 4.0 | 7.0 | 0.00 | 0.08 | 0.08 | 89 | 1006.8 |
| 20260506170504 | 53 | 274 | 5.0 | 8.0 | 0.00 | 0.08 | 0.08 | 89 | 1006.8 |
| 20260506170004 | 53 | 277 | 3.0 | 13.0 | 0.00 | 0.08 | 0.08 | 89 | 1006.8 |
| 20260506164505 | 53 | 291 | 7.0 | 13.0 | 0.00 | 0.08 | 0.08 | 89 | 1006.8 |
| 20260506164004 | 53 | 282 | 5.0 | 10.0 | 0.00 | 0.08 | 0.08 | 89 | 1006.8 |
| 20260506163505 | 54 | 276 | 6.0 | 10.0 | 0.00 | 0.08 | 0.08 | 89 | 1006.8 |
| 20260506163004 | 54 | 280 | 3.0 | 8.0 | 0.00 | 0.08 | 0.08 | 90 | 1006.8 |
| 20260506161505 | 54 | 294 | 7.0 | 10.0 | 0.00 | 0.08 | 0.08 | 89 | 1006.8 |
| 20260506160504 | 55 | 282 | 6.0 | 10.0 | 0.01 | 0.09 | 0.08 | 89 | 1006.8 |
| 20260506160004 | 55 | 317 | 5.0 | 10.0 | 0.01 | 0.09 | 0.08 | 90 | 1006.4 |
| 20260506154504 | 55 | 301 | 7.0 | 7.0 | 0.01 | 0.09 | 0.08 | 92 | 1006.8 |
| 20260506153505 | 56 | 285 | 1.0 | 3.0 | 0.01 | 0.09 | 0.08 | 91 | 1006.4 |
| 20260506151004 | 56 | 283 | 6.0 | 13.0 | 0.06 | 0.11 | 0.08 | 90 | 1006.4 |
| 20260506150505 | 56 | 276 | 5.0 | 8.0 | 0.05 | 0.10 | 0.07 | 91 | 1006.1 |
| 20260506150005 | 56 | 292 | 3.0 | 13.0 | 0.05 | 0.11 | 0.07 | 90 | 1006.1 |
| 20260506144504 | 57 | 293 | 6.0 | 13.0 | 0.05 | 0.11 | 0.07 | 89 | 1005.8 |
| 20260506144004 | 57 | 312 | 8.0 | 14.0 | 0.05 | 0.12 | 0.07 | 90 | 1005.8 |
| 20260506143504 | 56 | 288 | 7.0 | 17.0 | 0.05 | 0.12 | 0.07 | 90 | 1005.8 |
| 20260506143004 | 57 | 286 | 10.0 | 14.0 | 0.05 | 0.12 | 0.07 | 92 | 1005.8 |
| 20260506141004 | 58 | 273 | 2.0 | 7.0 | 0.00 | 0.08 | 0.02 | 88 | 1005.4 |
| 20260506140504 | 58 | 281 | 5.0 | 7.0 | 0.00 | 0.08 | 0.02 | 87 | 1005.1 |
| 20260506140004 | 59 | 286 | 5.0 | 7.0 | 0.00 | 0.08 | 0.02 | 86 | 1005.4 |
| 20260506134504 | 59 | 227 | 0.0 | 3.0 | 0.01 | 0.10 | 0.02 | 87 | 1005.4 |
| 20260506134005 | 58 | 279 | 1.0 | 3.0 | 0.01 | 0.10 | 0.02 | 87 | 1005.7 |
| 20260506133504 | 58 | 286 | 1.0 | 5.0 | 0.01 | 0.10 | 0.02 | 88 | 1005.8 |
| 20260506133004 | 57 | 279 | 0.0 | 8.0 | 0.02 | 0.10 | 0.02 | 88 | 1005.8 |
| 20260506131504 | 58 | 261 | 2.0 | 10.0 | 0.02 | 0.11 | 0.02 | 89 | 1005.8 |
| 20260506131004 | 58 | 271 | 3.0 | 7.0 | 0.02 | 0.11 | 0.02 | 89 | 1005.4 |
| 20260506130505 | 57 | 283 | 2.0 | 3.0 | 0.02 | 0.11 | 0.02 | 89 | 1005.5 |
| 20260506130005 | 57 | 349 | 2.0 | 8.0 | 0.02 | 0.11 | 0.02 | 90 | 1005.4 |
| 20260506124504 | 58 | 16 | 2.0 | 3.0 | 0.01 | 0.10 | 0.01 | 87 | 1005.1 |
| 20260506124004 | 59 | 307 | 0.0 | 2.0 | 0.01 | 0.10 | 0.01 | 86 | 1005.4 |
| 20260506123004 | 60 | 282 | 3.0 | 7.0 | 0.00 | 0.09 | 0.00 | 83 | 1005.1 |
| 20260506121505 | 61 | 269 | 1.0 | 2.0 | 0.00 | 0.10 | 0.00 | 81 | 1005.1 |
| 20260506120504 | 60 | 270 | 0.0 | 5.0 | 0.00 | 0.10 | 0.00 | 86 | 1005.4 |
| 20260506120004 | 60 | 298 | 3.0 | 7.0 | 0.00 | 0.10 | 0.00 | 84 | 1005.4 |
| 20260506114504 | 61 | 202 | 4.0 | 8.0 | 0.00 | 0.10 | 0.00 | 83 | 1005.2 |
| 20260506114005 | 60 | 295 | 1.0 | 3.0 | 0.00 | 0.10 | 0.00 | 83 | 1005.4 |
| 20260506113504 | 60 | 287 | 2.0 | 5.0 | 0.00 | 0.10 | 0.00 | 84 | 1005.4 |
| 20260506113004 | 60 | 293 | 1.0 | 7.0 | 0.00 | 0.10 | 0.00 | 82 | 1005.4 |
| 20260506111504 | 60 | 49 | 2.0 | 7.0 | 0.00 | 0.10 | 0.00 | 84 | 1005.2 |
| 20260506111004 | 59 | 58 | 5.0 | 10.0 | 0.00 | 0.10 | 0.00 | 86 | 1005.4 |
| 20260506110504 | 58 | 300 | 3.0 | 5.0 | 0.00 | 0.10 | 0.00 | 87 | 1005.4 |
| 20260506104504 | 59 | 244 | 1.0 | 2.0 | 0.00 | 0.10 | 0.00 | 86 | 1005.6 |
| 20260506104004 | 60 | 242 | 0.0 | 2.0 | 0.00 | 0.10 | 0.00 | 85 | 1005.7 |
| 20260506103505 | 60 | 250 | 0.0 | 3.0 | 0.00 | 0.10 | 0.00 | 83 | 1005.8 |
| 20260506103004 | 61 | 49 | 0.0 | 8.0 | 0.00 | 0.10 | 0.00 | 83 | 1005.4 |
| 20260506101504 | 59 | 309 | 2.0 | 10.0 | 0.00 | 0.10 | 0.00 | 84 | 1005.5 |
| 20260506101004 | 58 | 275 | 4.0 | 10.0 | 0.00 | 0.10 | 0.00 | 85 | 1005.4 |
| 20260506100503 | 59 | 298 | 3.0 | 7.0 | 0.00 | 0.10 | 0.00 | 85 | 1005.7 |
| 20260506100004 | 59 | 267 | 2.0 | 10.0 | 0.00 | 0.10 | 0.00 | 85 | 1005.4 |
| 20260506094004 | 59 | 299 | 1.0 | 2.0 | 0.00 | 0.10 | 0.00 | 86 | 1005.8 |
| 20260506093504 | 58 | 263 | 0.0 | 7.0 | 0.00 | 0.10 | 0.00 | 87 | 1005.5 |
| 20260506093004 | 57 | 295 | 3.0 | 7.0 | 0.00 | 0.10 | 0.00 | 86 | 1005.7 |
| 20260506091507 | 56 | 75 | 2.0 | 7.0 | 0.00 | 0.10 | 0.00 | 89 | 1005.7 |
| 20260506091006 | 56 | 179 | 2.0 | 7.0 | 0.00 | 0.10 | 0.00 | 90 | 1005.6 |
| 20260506090505 | 56 | 151 | 1.0 | 3.0 | 0.00 | 0.10 | 0.00 | 90 | 1005.4 |
| 20260506090006 | 56 | 206 | 2.0 | 5.0 | 0.00 | 0.10 | 0.00 | 88 | 1005.7 |
| 20260506084505 | 57 | 241 | 3.0 | 5.0 | 0.00 | 0.10 | 0.00 | 87 | 1005.7 |
| 20260506084005 | 57 | 277 | 1.0 | 3.0 | 0.00 | 0.10 | 0.00 | 87 | 1005.5 |
| 20260506083507 | 56 | 298 | 2.0 | 7.0 | 0.00 | 0.10 | 0.00 | 88 | 1005.4 |
| 20260506083006 | 57 | 337 | 4.0 | 10.0 | 0.00 | 0.10 | 0.00 | 87 | 1005.4 |
| 20260506081006 | 58 | 258 | 2.0 | 5.0 | 0.00 | 0.10 | 0.00 | 86 | 1005.1 |
| 20260506080506 | 57 | 212 | 3.0 | 5.0 | 0.00 | 0.10 | 0.00 | 86 | 1005.2 |
| 20260506073006 | 56 | 288 | 2.0 | 5.0 | 0.00 | 0.10 | 0.00 | 89 | 1005.4 |
| 20260506071506 | 56 | 272 | 0.0 | 3.0 | 0.00 | 0.10 | 0.00 | 89 | 1005.1 |
| 20260506071005 | 56 | 271 | 0.0 | 5.0 | 0.00 | 0.10 | 0.00 | 88 | 1005.1 |
| 20260506070505 | 56 | 238 | 1.0 | 7.0 | 0.00 | 0.10 | 0.00 | 88 | 1005.1 |
| 20260506061506 | 56 | 124 | 0.0 | 2.0 | 0.00 | 0.10 | 0.00 | 93 | 1005.3 |
| 20260506061005 | 56 | 334 | 0.0 | 0.0 | 0.00 | 0.10 | 0.00 | 93 | 1005.1 |
| 20260506060506 | 56 | 242 | 0.0 | 0.0 | 0.00 | 0.10 | 0.00 | 94 | 1005.1 |
| 20260506051005 | 53 | 272 | 0.0 | 0.0 | 0.00 | 0.10 | 0.00 | 99 | 1005.1 |
| 20260506050505 | 53 | 285 | 0.0 | 0.0 | 0.00 | 0.10 | 0.00 | 99 | 1005.1 |
| 20260506044505 | 52 | 272 | 0.0 | 0.0 | 0.00 | 0.10 | 0.00 | 99 | 1005.1 |
| 20260506043506 | 52 | 272 | 0.0 | 0.0 | 0.00 | 0.10 | 0.00 | 99 | 1005.1 |
| 20260506043005 | 52 | 272 | 0.0 | 0.0 | 0.00 | 0.10 | 0.00 | 99 | 1005.1 |
| 20260506041506 | 52 | 272 | 0.0 | 0.0 | 0.00 | 0.10 | 0.00 | 99 | 1005.1 |
| 20260506040506 | 52 | 273 | 0.0 | 0.0 | 0.00 | 0.10 | 0.00 | 99 | 1005.1 |
| 20260506034006 | 52 | 272 | 0.0 | 0.0 | 0.00 | 0.10 | 0.00 | 99 | 1005.3 |
| 20260506033506 | 52 | 273 | 0.0 | 0.0 | 0.00 | 0.10 | 0.00 | 99 | 1005.4 |
| 20260506033006 | 51 | 267 | 0.0 | 0.0 | 0.00 | 0.10 | 0.00 | 99 | 1005.4 |
| 20260506031506 | 50 | 271 | 0.0 | 0.0 | 0.00 | 0.10 | 0.00 | 98 | 1005.4 |
| 20260506031005 | 50 | 273 | 0.0 | 0.0 | 0.00 | 0.10 | 0.00 | 98 | 1005.4 |
| 20260506030505 | 50 | 273 | 0.0 | 0.0 | 0.00 | 0.10 | 0.00 | 98 | 1005.4 |
| 20260506030005 | 50 | 271 | 0.0 | 0.0 | 0.00 | 0.10 | 0.00 | 98 | 1005.4 |
| 20260506024504 | 50 | 271 | 0.0 | 0.0 | 0.00 | 0.10 | 0.00 | 98 | 1005.3 |
| 20260506024005 | 50 | 271 | 0.0 | 0.0 | 0.00 | 0.10 | 0.00 | 98 | 1005.4 |
| 20260506023506 | 50 | 271 | 0.0 | 0.0 | 0.00 | 0.10 | 0.00 | 98 | 1005.4 |
| 20260506023005 | 51 | 266 | 0.0 | 2.0 | 0.00 | 0.10 | 0.00 | 98 | 1005.4 |
| 20260506021505 | 51 | 259 | 0.0 | 2.0 | 0.00 | 0.10 | 0.00 | 98 | 1005.3 |
| 20260506021005 | 51 | 272 | 1.0 | 3.0 | 0.00 | 0.10 | 0.00 | 98 | 1005.4 |
| 20260506020005 | 52 | 261 | 0.0 | 0.0 | 0.00 | 0.10 | 0.00 | 97 | 1005.2 |
| 20260506014506 | 53 | 274 | 0.0 | 0.0 | 0.00 | 0.10 | 0.00 | 97 | 1005.6 |
| 20260506014005 | 53 | 274 | 0.0 | 0.0 | 0.00 | 0.10 | 0.00 | 97 | 1005.8 |
| 20260506013506 | 53 | 274 | 0.0 | 0.0 | 0.00 | 0.10 | 0.00 | 97 | 1005.5 |
| 20260506013005 | 53 | 276 | 0.0 | 0.0 | 0.00 | 0.10 | 0.00 | 97 | 1005.4 |
| 20260506011505 | 54 | 285 | 0.0 | 0.0 | 0.00 | 0.10 | 0.00 | 97 | 1005.8 |
| 20260506011005 | 54 | 274 | 0.0 | 0.0 | 0.00 | 0.10 | 0.00 | 97 | 1006.1 |
| 20260506010505 | 54 | 273 | 0.0 | 2.0 | 0.00 | 0.10 | 0.00 | 97 | 1005.8 |
| 20260506004505 | 53 | 265 | 0.0 | 0.0 | 0.00 | 0.10 | 0.00 | 97 | 1006.1 |
| 20260506004005 | 53 | 268 | 0.0 | 0.0 | 0.00 | 0.10 | 0.00 | 97 | 1006.0 |
| 20260506003506 | 53 | 268 | 0.0 | 0.0 | 0.00 | 0.10 | 0.00 | 97 | 1005.9 |
| 20260506003005 | 52 | 279 | 0.0 | 0.0 | 0.00 | 0.10 | 0.00 | 98 | 1005.8 |